Weather History for Monett, MO

Change the Weather History Date:

Monday, February 4, 2013

  Actual Average (KJLN) Record (KJLN)
Temperature  
Mean Temperature 47 °F 37 °F  
Max Temperature 59 °F 47 °F 78 °F (2008)
Min Temperature 33 °F 27 °F -4 °F (1996)
Degree Days  
Heating Degree Days 18 28  
Month to date heating degree days 113  
Since 1 July heating degree days 2662  
Cooling Degree Days 0 0  
Month to date cooling degree days 0  
Year to date cooling degree days 0  
Moisture  
Dew Point 33 °F    
Average Humidity 58    
Maximum Humidity 87    
Minimum Humidity 39    
Precipitation  
Precipitation 0.00 in 0.06 in 1.09 in (1971)
Month to date precipitation 0.26  
Year to date precipitation 2.29  
Sea Level Pressure  
Sea Level Pressure 29.88 in    
Wind  
Wind Speed 12 mph (WSW)    
Max Wind Speed 17 mph    
Max Gust Speed 24 mph    
Visibility 10 miles    
Events Rain , Thunderstorm    
T = Trace of Precipitation, MM = Missing Value Source: NWS Daily Summary

Daily Weather History Graph

Daily Weather History Graph

Search for Another Location

Airport:

Trip Planner

Search our weather history database for the weather conditions in past years. The results will help you decide how hot, cold, wet, or windy it might be!

Date:

Astronomy

Feb. 04, 2013 Rise Set
Actual Time 7:15 AM CST 5:44 PM CST
Civil Twilight 6:48 AM CST 6:12 PM CST
Nautical Twilight 6:17 AM CST 6:42 PM CST
Astronomical Twilight 5:47 AM CST 7:13 PM CST
Moon 1:50 AM CST (2/4) 12:11 PM CST (2/4)
Length of Visible Light 11h 23m
Length of Day
10h 29m
Last Quarter, 37% of the Moon is Illuminated
Feb 4
Last Quarter
Feb 10
New
Feb 17
First Quarter
Feb 25
Full
Mar 4
Last Quarter

Hourly Weather History & Observations

Time (CST) Temp. Windchill Dew Point Humidity Pressure Visibility Wind Dir Wind Speed Gust Speed Precip Events Conditions
12:15 AM 46.4 °F 41.1 °F 24.8 °F 43% 29.94 in 10.0 mi South 11.5 mph 17.3 mph N/A   Clear
12:35 AM 46.4 °F 40.4 °F 24.8 °F 43% 29.93 in 10.0 mi South 13.8 mph - N/A   Clear
12:55 AM 46.4 °F 40.7 °F 24.8 °F 43% 29.92 in 10.0 mi South 12.7 mph - N/A   Clear
1:15 AM 46.4 °F 40.7 °F 26.6 °F 46% 29.92 in 10.0 mi South 12.7 mph - N/A   Clear
1:35 AM 48.2 °F - 26.6 °F 43% 29.91 in 10.0 mi South 12.7 mph - N/A   Scattered Clouds
1:55 AM 48.2 °F - 26.6 °F 43% 29.90 in 10.0 mi South 11.5 mph - N/A   Overcast
2:15 AM 50.0 °F - 26.6 °F 40% 29.90 in 10.0 mi South 13.8 mph 17.3 mph N/A   Scattered Clouds
2:35 AM 50.0 °F - 26.6 °F 40% 29.89 in 10.0 mi South 15.0 mph 20.7 mph N/A   Mostly Cloudy
2:55 AM 48.2 °F - 26.6 °F 43% 29.88 in 10.0 mi South 16.1 mph 21.9 mph N/A   Scattered Clouds
3:15 AM 50.0 °F - 26.6 °F 40% 29.88 in 10.0 mi South 16.1 mph 23.0 mph N/A   Clear
4:55 AM 48.2 °F - 28.4 °F 46% 29.84 in 10.0 mi South 16.1 mph 21.9 mph N/A   Scattered Clouds
5:15 AM 48.2 °F - 28.4 °F 46% 29.84 in 10.0 mi South 15.0 mph 23.0 mph N/A   Scattered Clouds
5:35 AM 48.2 °F - 30.2 °F 50% 29.84 in 10.0 mi SSW 12.7 mph 18.4 mph N/A   Mostly Cloudy
5:55 AM 48.2 °F - 30.2 °F 50% 29.84 in 10.0 mi South 13.8 mph 18.4 mph N/A Thunderstorm Mostly Cloudy
6:15 AM 48.2 °F - 32.0 °F 54% 29.84 in 10.0 mi SSW 13.8 mph 18.4 mph N/A Thunderstorm Overcast
6:35 AM 50.0 °F - 32.0 °F 50% 29.83 in 10.0 mi SSW 13.8 mph - N/A Thunderstorm Overcast
6:55 AM 48.2 °F - 32.0 °F 54% 29.83 in 10.0 mi South 15.0 mph - N/A   Overcast
7:15 AM 48.2 °F - 32.0 °F 54% 29.83 in 10.0 mi SSW 16.1 mph 20.7 mph N/A   Overcast
7:35 AM 48.2 °F - 32.0 °F 54% 29.84 in 10.0 mi SSW 17.3 mph 21.9 mph N/A   Overcast
7:55 AM 46.4 °F 40.4 °F 33.8 °F 62% 29.84 in 10.0 mi SSW 13.8 mph - N/A Rain Light Rain
8:15 AM 46.4 °F 40.1 °F 35.6 °F 66% 29.86 in 10.0 mi SSW 15.0 mph 21.9 mph N/A   Overcast
8:35 AM 46.4 °F 40.1 °F 37.4 °F 71% 29.87 in 10.0 mi SSW 15.0 mph 24.2 mph N/A   Overcast
8:55 AM 46.4 °F 40.1 °F 37.4 °F 71% 29.88 in 10.0 mi SSW 15.0 mph - N/A   Overcast
9:15 AM 46.4 °F 40.1 °F 37.4 °F 71% 29.88 in 10.0 mi SSW 15.0 mph - N/A   Overcast
9:35 AM 46.4 °F 41.1 °F 37.4 °F 71% 29.88 in 10.0 mi SSW 11.5 mph - N/A   Overcast
9:55 AM 46.4 °F 40.7 °F 37.4 °F 71% 29.88 in 10.0 mi SSW 12.7 mph 17.3 mph N/A   Overcast
10:15 AM 46.4 °F 39.5 °F 37.4 °F 71% 29.88 in 10.0 mi SSW 17.3 mph - N/A   Overcast
10:35 AM 48.2 °F - 37.4 °F 66% 29.88 in 10.0 mi SW 11.5 mph 20.7 mph N/A   Mostly Cloudy
10:55 AM 50.0 °F - 39.2 °F 66% 29.88 in 10.0 mi SSW 15.0 mph 20.7 mph N/A   Scattered Clouds
11:15 AM 51.8 °F - 39.2 °F 62% 29.88 in 10.0 mi SW 15.0 mph 19.6 mph N/A   Clear
11:35 AM 51.8 °F - 39.2 °F 62% 29.86 in 10.0 mi SW 17.3 mph - N/A   Clear
11:55 AM 53.6 °F - 41.0 °F 62% 29.86 in 10.0 mi SW 12.7 mph 20.7 mph N/A   Clear
12:15 PM 53.6 °F - 41.0 °F 62% 29.85 in 10.0 mi SSW 16.1 mph 21.9 mph N/A   Clear
12:35 PM 55.4 °F - 41.0 °F 58% 29.84 in 10.0 mi WSW 12.7 mph 21.9 mph N/A   Clear
12:55 PM 55.4 °F - 41.0 °F 58% 29.84 in 10.0 mi WSW 12.7 mph 20.7 mph N/A   Scattered Clouds
1:15 PM 55.4 °F - 39.2 °F 54% 29.84 in 10.0 mi West 17.3 mph - N/A   Clear
1:35 PM 57.2 °F - 39.2 °F 51% 29.83 in 10.0 mi West 11.5 mph - N/A   Clear
1:55 PM 57.2 °F - 37.4 °F 48% 29.83 in 10.0 mi West 9.2 mph - N/A   Clear
2:15 PM 59.0 °F - 37.4 °F 45% 29.83 in 10.0 mi West 10.4 mph - N/A   Clear
2:35 PM 59.0 °F - 37.4 °F 45% 29.82 in 10.0 mi WNW 10.4 mph - N/A   Clear
2:55 PM 59.0 °F - 35.6 °F 42% 29.82 in 10.0 mi NNW 10.4 mph - N/A   Clear
3:15 PM 59.0 °F - 35.6 °F 42% 29.82 in 10.0 mi NW 11.5 mph - N/A   Clear
3:35 PM 59.0 °F - 33.8 °F 39% 29.83 in 10.0 mi NW 9.2 mph - N/A   Clear
3:55 PM 59.0 °F - 33.8 °F 39% 29.83 in 10.0 mi NNW 10.4 mph - N/A   Clear
4:15 PM 57.2 °F - 33.8 °F 41% 29.84 in 10.0 mi NW 10.4 mph - N/A   Clear
4:35 PM 55.4 °F - 33.8 °F 44% 29.84 in 10.0 mi NNW 9.2 mph - N/A   Clear
4:55 PM 55.4 °F - 33.8 °F 44% 29.84 in 10.0 mi NNW 9.2 mph - N/A   Clear
5:15 PM 53.6 °F - 33.8 °F 47% 29.84 in 10.0 mi NNW 8.1 mph - N/A   Clear
5:35 PM 51.8 °F - 33.8 °F 50% 29.86 in 10.0 mi North 8.1 mph - N/A   Clear
5:55 PM 50.0 °F - 33.8 °F 54% 29.87 in 10.0 mi North 6.9 mph - N/A   Clear
6:15 PM 48.2 °F - 33.8 °F 58% 29.88 in 10.0 mi North 6.9 mph - N/A   Clear
6:35 PM 46.4 °F 43.5 °F 33.8 °F 62% 29.89 in 10.0 mi North 5.8 mph - N/A   Clear
7:15 PM 44.6 °F 40.2 °F 32.0 °F 61% 29.90 in 10.0 mi North 8.1 mph - N/A   Clear
7:35 PM 44.6 °F 41.4 °F 32.0 °F 61% 29.91 in 10.0 mi North 5.8 mph - N/A   Clear
7:55 PM 42.8 °F 41.1 °F 32.0 °F 66% 29.91 in 10.0 mi North 3.5 mph - N/A   Clear
8:15 PM 41.0 °F 38.0 °F 32.0 °F 70% 29.91 in 10.0 mi North 4.6 mph - N/A   Clear
8:35 PM 41.0 °F 37.1 °F 32.0 °F 70% 29.91 in 10.0 mi North 5.8 mph - N/A   Clear
8:55 PM 41.0 °F 35.8 °F 32.0 °F 70% 29.92 in 10.0 mi North 8.1 mph - N/A   Clear
9:15 PM 39.2 °F 35.9 °F 32.0 °F 75% 29.93 in 10.0 mi NNE 4.6 mph - N/A   Clear
9:35 PM 39.2 °F 35.0 °F 32.0 °F 75% 29.93 in 10.0 mi NNE 5.8 mph - N/A   Clear
9:55 PM 37.4 °F 32.8 °F 32.0 °F 81% 29.93 in 10.0 mi NE 5.8 mph - N/A   Clear
10:15 PM 37.4 °F 32.8 °F 32.0 °F 81% 29.94 in 10.0 mi NE 5.8 mph - N/A   Clear
10:35 PM 37.4 °F 33.8 °F 32.0 °F 81% 29.94 in 10.0 mi NE 4.6 mph - N/A   Clear
10:55 PM 35.6 °F 29.9 °F 32.0 °F 87% 29.93 in 10.0 mi NE 6.9 mph - N/A   Clear
11:15 PM 35.6 °F 31.7 °F 30.2 °F 81% 29.93 in 10.0 mi NE 4.6 mph - N/A   Clear
11:35 PM 35.6 °F - 32.0 °F 87% 29.94 in 10.0 mi Calm Calm - N/A   Clear
11:55 PM 33.8 °F 30.8 °F 30.2 °F 87% 29.94 in 10.0 mi ENE 3.5 mph - N/A   Clear